DECAYED
Showing default

UNICORN-2Q, 63491 (Decayed)

Orbit data source: Space-Track

UNICORN-2Q, 63491 was a payload satellite owned by Alba Orbital (DE) in SSO that was launched on Sat, 15 Mar 2025 UTC via an FALCON 9 launch vehicle from the Air Force Western Test Range (AFWTR). Payload-class satellites include a variety of spacecraft equipped with specific instruments for various scientific and technological missions. These include communications satellites like Starlink; space stations such as the ISS; scientific satellites like the Hubble; Earth observation satellites from companies like Planet Labs, Umbra, and HawkEye 360; GPS; miniature CubeSats for education and research; and military/defense satellites.

Loading next visibility...
Identifier
63491, 2025-052BM
Orbit
Decayed
Country
Flag of DEDE / GER
Related business
Manufacturer
Alba Orbital
Mission
Decayed Commercial Imaging
Bus & Motor
POCKETQUBE 3P, Unknown motor
Mass
~0.75 kg wet, ~0.75 kg dry
Launch date (UTC)
2025-03-15 (2 years ago)
Launch vehicle
FALCON 9
Launch site
Air Force Western Test Range (AFWTR)
Object type
Payload
Rocket body
Debris
Shape & HBR
Box + 2 Pan, 0.2 m
Radar Cross Section
0.016 m², Medium (>0.1 m² and < 1m²)

Expand to show TLE details & history
Last TLE update: 10 months ago

TLE from 10 months ago
0 UNICORN-2Q
1 63491U 25052BM  25329.97682215  .05952508  10409+0  65803-2 0  9999
2 63491  97.3835 227.1388 0005029 124.5396 235.6365 16.15016502 39376
Epoch: 2025-11-25T23:26Z
TLE epoch observation values (Epoch: 2025-11-25T23:26:37.433Z)
Latitude
-0.0001°
Longitude
170.32813°
Altitude
238.214 km
Speed
7.763 km/s
True Right ascension
15h 08m 33s
True Declination
0° 00' 00"
Sunlit
Object was in daylight at epoch
Visualization orbit readout
Latitude
Unknown
Longitude
Unknown
Altitude
Unknown
Speed
Unknown
Apparent Right ascension
Unknown
Apparent Declination
Unknown
Sunlit
N/A
Visualization observer readout
Local Sidereal Time
12:42:21
Azimuth
Unknown
Elevation
Unknown
Doppler factor
Unknown
Orbital elements
Apogee altitude
233.28 km
Perigee altitude
226.634 km
Semi-major axis
6,608.094 km
Eccentricity
0.0005
Inclination
97.3835°
RAAN
227.1388°
Arg. of periapsis
124.5396°
True anomaly
235.58895°
Mean anomaly
235.6365°
Eccentric anomaly
235.61272°
Mean motion
4.04044 °/min
Orbital period
89.1 mins
BSTAR
0.0065803
Loading maneuver chart data...
Computing Atmospheric mass density...
Loading historical data...
Loading historical data...
Loading historical data...
Loading historical data...
Loading historical data...
Loading historical data...
Loading historical data...

Documentation

Showing up to 5 results
|